[[{"header":{"parameterUnit":"m.s-1","parameterCategory":1,"la1":30.2991,"la2":30.254,"lo1":-89.0895,"lo2":-89.0444,"dy":0.0017,"dx":0.0017,"nx":28,"ny":28,"refTime":"2025-01-05T09:00:00:Z","depth":0,"parameterNumber":2,"parameterNumberName":"U-component_of_WINDS"},"data":[0,0,0,0,0,0,0,0,0,0,0,0,0,0,0,0,0,0,0,0,0,0,0,0,0,0,0,0,0,0,0,0,0,0,0,0,0,0,0,0,0,0,0,0,0,0,0,0,0,0,0,0,0,0,0,0,0,0,0.6446,0.6445,0,0.6368,0.6367,0.6367,0.6308,0.6307,0.6307,0.6306,0.6227,0.6226,0.6224,0,0,0,0,0,0,0,0,0,0,0,0,0,0.6545,0.6544,0.6446,0.6445,0.6444,0.6368,0.6367,0.6366,0.6308,0.6307,0.6307,0.6306,0.6228,0.6226,0.6224,0,0,0,0,0,0,0,0,0,0,0,0,0,0.6489,0.6543,0.6446,0.6406,0.6402,0.6369,0.6367,0.6366,0.6308,0.6307,0.6306,0.6306,0.6228,0.6226,0.6224,0.6225,0,0,0.6216,0.6215,0,0,0,0,0,0,0,0,0.6492,0.6485,0.6413,0.6409,0.6404,0.6347,0.6373,0.6319,0.6308,0.6344,0.6306,0.6305,0.6268,0.6262,0.6249,0.6221,0.6218,0.6216,0.6215,0.6214,0.6213,0,0,0,0,0,0,0,0.6496,0.6488,0.6415,0.6412,0.6406,0.6392,0.6383,0.6363,0.6311,0.634,0.6336,0.6328,0.6265,0.6252,0.6247,0.6217,0.6216,0.6214,0.6213,0.6212,0.6186,0.6187,0,0,0,0,0,0,0.6506,0.6492,0.6418,0.6413,0.6447,0.6391,0.6381,0.6366,0.6311,0.6302,0.6328,0.6325,0.6256,0.625,0.6244,0.6242,0.6214,0.6211,0.621,0.6185,0.6186,0.6187,0,0,0,0,0,0,0.6508,0.65,0.6421,0.6451,0.644,0.639,0.6374,0.6365,0.6351,0.6302,0.6293,0.6324,0.6255,0.6247,0.623,0.6238,0.621,0.6208,0.6184,0.6186,0.6187,0.6238,0,0,0,0,0,0,0.6511,0.6501,0.6501,0.6452,0.6439,0.6408,0.6374,0.6364,0.6347,0.6342,0.6296,0.6287,0.6254,0.6234,0.6228,0.6235,0.6206,0.6183,0.6185,0.6186,0.6235,0.6241,0.6245,0,0,0,0,0,0.6515,0.6519,0.6501,0.6493,0.6437,0.6409,0.6402,0.6363,0.6348,0.6348,0.6316,0.6289,0.6239,0.6233,0.6225,0.6232,0.6183,0.6184,0.6186,0.6233,0.624,0.6245,0,0,0,0,0,0,0.657,0.6511,0.6491,0.6479,0.6449,0.6399,0.6397,0.6372,0.6346,0.6342,0.6296,0.6286,0.6274,0.6251,0.6246,0.623,0.6207,0.6207,0.6246,0.6251,0.6256,0.6262,0.6204,0,0,0,0,0,0.6581,0.6563,0.6512,0.6506,0.6492,0.6448,0.6434,0.6407,0.6375,0.6362,0.6329,0.6299,0.6276,0.6262,0.6239,0.6232,0.6221,0.6232,0.6237,0.6242,0.6243,0.6237,0.6242,0.6193,0.6193,0.6193,0,0,0.6603,0.6568,0.656,0.6516,0.649,0.6473,0.6437,0.642,0.6407,0.6359,0.6341,0.6316,0.6279,0.6267,0.626,0.6248,0.6254,0.6244,0.6248,0.6246,0.624,0.6244,0.6249,0.6194,0.6194,0.6193,0,0,0.6634,0.6606,0.6598,0.6572,0.6533,0.6504,0.6502,0.6455,0.6437,0.6418,0.6382,0.6365,0.6328,0.6303,0.6286,0.6308,0.6282,0.6302,0.6328,0.6324,0.6327,0.6331,0.6339,0.6343,0.6303,0.6303,0.6303,0,0.6666,0.6638,0.6597,0.6582,0.6564,0.652,0.6512,0.6489,0.6445,0.6434,0.642,0.6372,0.6344,0.6326,0.6331,0.6319,0.6315,0.6307,0.633,0.6333,0.6335,0.6343,0.6346,0.6305,0.6305,0.6305,0.6305,0,0.668,0.6661,0.6659,0.6617,0.6599,0.6588,0.6545,0.6532,0.6507,0.6479,0.646,0.6425,0.6394,0.6388,0.6363,0.6366,0.636,0.6339,0.6315,0.6343,0.635,0.6352,0.6309,0.6308,0.6307,0.6307,0,0,0.6743,0.6679,0.6679,0.666,0.6614,0.6598,0.6585,0.6554,0.6544,0.6515,0.6503,0.6472,0.6453,0.6433,0.6405,0.6401,0.6422,0.6381,0.6379,0.639,0.6424,0.644,0.6444,0.6404,0.6404,0.6405,0.6427,0,0.6767,0.6741,0.6704,0.669,0.6672,0.663,0.6619,0.659,0.6563,0.6544,0.6515,0.6494,0.647,0.6458,0.6452,0.6421,0.6428,0.6418,0.6393,0.6393,0.6404,0.6447,0.6464,0.6486,0.6429,0.6429,0.643,0,0.6791,0.6765,0.6749,0.6705,0.6696,0.6687,0.6656,0.6638,0.6605,0.6585,0.6564,0.6534,0.6518,0.6497,0.6475,0.6469,0.6456,0.644,0.644,0.6436,0.6413,0.6445,0.6493,0.6496,0.6433,0.6433,0.6432,0,0.684,0.68,0.6785,0.677,0.6718,0.6712,0.6691,0.6656,0.664,0.6613,0.6603,0.6574,0.6559,0.6538,0.6502,0.6489,0.6484,0.6459,0.6468,0.6469,0.6469,0.6469,0.6516,0.646,0.646,0.646,0.646,0,0.687,0.6863,0.6806,0.6798,0.6788,0.6746,0.6737,0.6711,0.6681,0.6667,0.6629,0.6616,0.6569,0.6551,0.6522,0.6508,0.6502,0.6486,0.6479,0.649,0.6492,0.6481,0.6479,0.6461,0.6461,0.6461,0.6461,0,0.6923,0.6885,0.6866,0.6819,0.6807,0.6802,0.6761,0.6751,0.6722,0.6705,0.6698,0.6654,0.663,0.6592,0.6557,0.6538,0.653,0.6517,0.6542,0.6537,0.6548,0.6548,0.6589,0.6593,0.6536,0.6536,0.6537,0,0.6945,0.6938,0.689,0.6877,0.6857,0.6838,0.6821,0.678,0.6764,0.6726,0.6721,0.6694,0.6671,0.6637,0.6601,0.6575,0.6561,0.6578,0.6557,0.6569,0.6562,0.6563,0.6562,0.6583,0.6583,0.6584,0.6585,0,0.6988,0.697,0.6948,0.692,0.6901,0.6877,0.685,0.6843,0.6795,0.678,0.6756,0.6738,0.6703,0.6678,0.6647,0.6624,0.6597,0.6591,0.6592,0.6603,0.6618,0.6611,0.6555,0.6591,0.659,0.659,0.6589,0.6589,0.7026,0.7018,0.6983,0.696,0.6936,0.6913,0.6901,0.6871,0.685,0.6819,0.6795,0.6773,0.674,0.6695,0.6675,0.6657,0.6644,0.6645,0.6645,0.6646,0.6651,0.6621,0.6651,0.6651,0.665,0.665,0.665,0,0.7068,0.7044,0.7023,0.6987,0.6969,0.6945,0.6915,0.6901,0.6882,0.6853,0.6832,0.6804,0.678,0.6743,0.6716,0.6709,0.6695,0.6703,0.6703,0.6699,0.6663,0.6666,0.6714,0.6714,0.6714,0.6714,0.6714,0.6714,0.7088,0.7073,0.7051,0.7024,0.7,0.6978,0.6963,0.6941,0.6918,0.6889,0.6869,0.6845,0.6813,0.6783,0.676,0.6749,0.6741,0.6753,0.6739,0.6707,0.6701,0.6695,0.6697,0.6751,0.6751,0.6775,0.6776,0.6776]},{"header":{"parameterUnit":"m.s-1","parameterCategory":1,"la1":30.2991,"la2":30.254,"lo1":-89.0895,"lo2":-89.0444,"dy":0.0017,"dx":0.0017,"nx":28,"ny":28,"refTime":"2025-01-05T09:00:00:Z","depth":0,"parameterNumber":3,"parameterNumberName":"V-component_of_WINDS"},"data":[0,0,0,0,0,0,0,0,0,0,0,0,0,0,0,0,0,0,0,0,0,0,0,0,0,0,0,0,0,0,0,0,0,0,0,0,0,0,0,0,0,0,0,0,0,0,0,0,0,0,0,0,0,0,0,0,0,0,7.1504,7.1506,0,7.1658,7.166,7.1662,7.1673,7.1671,7.167,7.1668,7.1827,7.1833,7.1838,0,0,0,0,0,0,0,0,0,0,0,0,0,7.1221,7.1227,7.1504,7.1506,7.1508,7.1658,7.166,7.1662,7.1673,7.1671,7.1669,7.1667,7.1825,7.1832,7.1839,0,0,0,0,0,0,0,0,0,0,0,0,0,7.1357,7.1228,7.1504,7.1531,7.1535,7.1658,7.166,7.1663,7.1674,7.1671,7.1669,7.1666,7.1823,7.1831,7.184,7.1945,0,0,7.1866,7.187,0,0,0,0,0,0,0,0,7.1349,7.1367,7.1525,7.153,7.1534,7.1644,7.1619,7.1757,7.1674,7.1621,7.1668,7.1665,7.1768,7.1781,7.1816,7.1952,7.1959,7.1867,7.1873,7.1876,7.1879,0,0,0,0,0,0,0,7.134,7.1361,7.1565,7.1528,7.1533,7.1537,7.1553,7.1645,7.1707,7.1626,7.1627,7.1645,7.177,7.1807,7.182,7.1962,7.1867,7.1875,7.188,7.1884,7.2196,7.2199,0,0,0,0,0,0,7.1325,7.1353,7.156,7.157,7.1433,7.1544,7.1563,7.1611,7.1706,7.1718,7.1647,7.1645,7.1794,7.1809,7.1825,7.1957,7.1876,7.1884,7.1889,7.2193,7.2196,7.22,0,0,0,0,0,0,7.1319,7.1343,7.1554,7.1462,7.1489,7.1552,7.1606,7.1616,7.1653,7.1722,7.1734,7.1674,7.1792,7.1813,7.1916,7.1963,7.1888,7.1896,7.2189,7.2194,7.2198,7.222,0,0,0,0,0,0,7.131,7.1341,7.1381,7.1462,7.1494,7.1641,7.1609,7.1621,7.1668,7.1667,7.175,7.1762,7.1792,7.1903,7.1924,7.1973,7.1903,7.2185,7.2191,7.2197,7.2216,7.2225,7.2233,0,0,0,0,0,7.13,7.138,7.1383,7.1408,7.1545,7.1644,7.1662,7.1695,7.1671,7.1713,7.1758,7.1759,7.1954,7.1913,7.1938,7.199,7.2182,7.219,7.2196,7.2212,7.2223,7.2233,0,0,0,0,0,0,7.1302,7.1391,7.1395,7.1504,7.1566,7.1645,7.1699,7.1705,7.1776,7.1772,7.181,7.1829,7.1931,7.1971,7.1924,7.2099,7.2066,7.2078,7.2069,7.2081,7.2089,7.2078,7.191,0,0,0,0,0,7.1315,7.1388,7.1462,7.1551,7.1582,7.1635,7.1679,7.1699,7.1766,7.1792,7.1845,7.191,7.1986,7.2035,7.2109,7.2221,7.2241,7.2269,7.2278,7.2285,7.2295,7.2361,7.2375,7.2222,7.2222,7.2222,0,0,7.1343,7.1401,7.1444,7.1553,7.1603,7.1679,7.1657,7.1737,7.1794,7.1805,7.1906,7.1946,7.2022,7.213,7.2181,7.2167,7.2342,7.2294,7.2298,7.2306,7.237,7.2384,7.2397,7.2227,7.2226,7.2225,0,0,7.1433,7.1483,7.1564,7.1615,7.1693,7.1728,7.1747,7.1826,7.1854,7.1956,7.1966,7.2035,7.2164,7.2218,7.2263,7.2375,7.238,7.2398,7.2444,7.2508,7.252,7.2531,7.2574,7.2588,7.2408,7.2408,7.2408,0,7.1458,7.1571,7.1604,7.1685,7.1734,7.1747,7.183,7.1879,7.1977,7.201,7.1992,7.2157,7.2208,7.2332,7.236,7.2394,7.2419,7.2389,7.2515,7.2527,7.2537,7.2579,7.2594,7.241,7.241,7.241,7.2409,0,7.16,7.1679,7.1735,7.183,7.1884,7.1966,7.2012,7.2064,7.2079,7.2117,7.2222,7.2284,7.2372,7.2402,7.2418,7.2529,7.2518,7.2507,7.2475,7.2553,7.2593,7.2609,7.2413,7.2412,7.2411,7.2411,0,0,7.1695,7.1808,7.1828,7.1873,7.196,7.2022,7.2105,7.2191,7.2236,7.2303,7.2376,7.2486,7.2477,7.2528,7.255,7.2605,7.2694,7.2588,7.2591,7.2608,7.2824,7.2833,7.285,7.2697,7.27,7.2702,7.2818,0,7.1796,7.1945,7.1978,7.2106,7.2181,7.2195,7.2268,7.233,7.2367,7.2437,7.2478,7.2557,7.2538,7.257,7.2625,7.2671,7.2738,7.2663,7.2767,7.277,7.275,7.2871,7.288,7.2987,7.2834,7.2836,7.2838,0,7.1934,7.2006,7.2142,7.2222,7.2255,7.2319,7.2403,7.2468,7.254,7.2563,7.2621,7.2637,7.2726,7.2689,7.2813,7.2762,7.2806,7.2835,7.284,7.2853,7.281,7.2889,7.3021,7.3038,7.2862,7.286,7.2859,0,7.1994,7.2124,7.2223,7.226,7.2355,7.2401,7.2442,7.2511,7.2562,7.2635,7.2668,7.275,7.2795,7.2859,7.2898,7.2867,7.3021,7.2986,7.3045,7.3044,7.3078,7.3076,7.3221,7.3102,7.3102,7.3102,7.3101,0,7.2105,7.2188,7.2251,7.2312,7.2407,7.2444,7.2537,7.2579,7.264,7.2711,7.2728,7.2794,7.284,7.2913,7.2944,7.3044,7.3064,7.3087,7.3095,7.3087,7.3084,7.3118,7.3113,7.3106,7.3105,7.3104,7.3103,0,7.2188,7.2233,7.2342,7.2424,7.2446,7.2513,7.2583,7.2644,7.2681,7.2771,7.2794,7.2854,7.2941,7.2986,7.3094,7.3116,7.3229,7.3231,7.3205,7.3209,7.3266,7.3261,7.344,7.3467,7.3328,7.3329,7.333,0,7.2257,7.2322,7.2411,7.2459,7.2502,7.258,7.2632,7.2672,7.2726,7.2814,7.2864,7.2952,7.3025,7.3164,7.3218,7.3302,7.3307,7.3364,7.332,7.3311,7.3312,7.3308,7.3317,7.3373,7.3374,7.3375,7.3376,0,7.2376,7.2396,7.247,7.2553,7.2615,7.2682,7.2749,7.2788,7.2839,7.2899,7.2988,7.3045,7.3156,7.3245,7.3333,7.3377,7.3386,7.3389,7.3408,7.3402,7.3386,7.3398,7.3229,7.3385,7.3385,7.3384,7.3383,7.3383,7.2456,7.2516,7.2588,7.2671,7.2726,7.2788,7.285,7.2896,7.2971,7.3066,7.3084,7.318,7.3252,7.3372,7.3419,7.3495,7.3483,7.3509,7.3517,7.3523,7.3528,7.3371,7.3511,7.3511,7.3511,7.351,7.351,0,7.2579,7.2626,7.2702,7.2796,7.2862,7.2864,7.2938,7.2993,7.3077,7.3144,7.3216,7.332,7.3406,7.3467,7.3555,7.3605,7.3612,7.3627,7.3625,7.3636,7.3531,7.3508,7.362,7.362,7.362,7.362,7.362,7.362,7.265,7.2752,7.278,7.291,7.2957,7.3051,7.3093,7.3152,7.3206,7.3321,7.3393,7.3432,7.3498,7.3591,7.3671,7.3687,7.372,7.3736,7.3752,7.3654,7.3642,7.3631,7.361,7.3742,7.3742,7.385,7.3851,7.3852]}]]